| time (UTC) | temp F | wind direction | speed knots | gust knots | rain 1hr in | rain 24hr in | rain mn in | humidity % | barometer mb |
| 20260906093221 | 69 | 324 | 0.0 | 1.7 | 0.00 | 0.00 | 0.00 | 97 | 1009.0 |
| 20260906092714 | 69 | 342 | 0.0 | 0.0 | 0.00 | 0.00 | 0.00 | 97 | 1009.0 |
| 20260906092209 | 69 | 342 | 0.0 | 0.0 | 0.00 | 0.00 | 0.00 | 97 | 1009.0 |
| 20260906091049 | 69 | 342 | 0.0 | 0.0 | 0.00 | 0.00 | 0.00 | 97 | 1008.8 |
| 20260906090536 | 69 | 342 | 0.0 | 0.0 | 0.00 | 0.00 | 0.00 | 97 | 1008.9 |
| 20260906090017 | 69 | 342 | 0.0 | 0.0 | 0.00 | 0.00 | 0.00 | 97 | 1008.8 |
| 20260906085458 | 69 | 342 | 0.0 | 0.0 | 0.00 | 0.00 | 0.00 | 97 | 1008.7 |
| 20260906084959 | 69 | 342 | 0.0 | 0.0 | 0.00 | 0.00 | 0.00 | 97 | 1008.5 |
| 20260906084446 | 69 | 342 | 0.0 | 0.9 | 0.00 | 0.00 | 0.00 | 97 | 1008.5 |
| 20260906082700 | 70 | 318 | 0.0 | 0.0 | 0.00 | 0.00 | 0.00 | 97 | 1008.5 |
| 20260906082150 | 70 | 318 | 0.0 | 0.0 | 0.00 | 0.00 | 0.00 | 97 | 1008.6 |
| 20260906081033 | 70 | 333 | 0.0 | 2.6 | 0.00 | 0.00 | 0.00 | 97 | 1008.7 |
| 20260906080543 | 70 | 336 | 0.0 | 1.7 | 0.00 | 0.00 | 0.00 | 97 | 1008.7 |
| 20260906080040 | 70 | 317 | 0.0 | 0.9 | 0.00 | 0.00 | 0.00 | 97 | 1008.6 |
| 20260906074919 | 70 | 317 | 0.0 | 0.0 | 0.00 | 0.00 | 0.00 | 97 | 1008.4 |
| 20260906073754 | 70 | 317 | 0.0 | 0.0 | 0.00 | 0.00 | 0.00 | 97 | 1008.3 |
| 20260906073258 | 70 | 317 | 0.0 | 0.0 | 0.00 | 0.00 | 0.00 | 97 | 1008.3 |
| 20260906072747 | 70 | 317 | 0.0 | 0.0 | 0.00 | 0.00 | 0.00 | 97 | 1008.3 |
| 20260906072234 | 70 | 317 | 0.0 | 0.0 | 0.00 | 0.00 | 0.00 | 97 | 1008.4 |
| 20260906071730 | 70 | 317 | 0.0 | 0.0 | 0.00 | 0.00 | 0.00 | 97 | 1008.4 |
| 20260906071240 | 70 | 317 | 0.0 | 0.0 | 0.00 | 0.00 | 0.00 | 97 | 1008.4 |
| 20260906070727 | 70 | 317 | 0.0 | 0.0 | 0.00 | 0.00 | 0.00 | 97 | 1008.5 |
| 20260906070216 | 70 | 317 | 0.0 | 0.0 | 0.00 | 0.00 | 0.00 | 97 | 1008.6 |
| 20260906065705 | 70 | 317 | 0.0 | 0.0 | 0.00 | 0.00 | 0.00 | 97 | 1008.8 |
| 20260906065207 | 70 | 317 | 0.0 | 0.0 | 0.00 | 0.00 | 0.00 | 97 | 1008.9 |
| 20260906064657 | 70 | 317 | 0.0 | 0.0 | 0.00 | 0.00 | 0.00 | 97 | 1008.9 |
| 20260906064146 | 70 | 317 | 0.0 | 0.9 | 0.00 | 0.00 | 0.00 | 97 | 1008.9 |
| 20260906063637 | 70 | 0 | 0.0 | 0.0 | 0.00 | 0.00 | 0.00 | 97 | 1009.0 |
| 20260906063123 | 70 | 0 | 0.0 | 0.0 | 0.00 | 0.00 | 0.00 | 97 | 1009.0 |
| 20260906062619 | 70 | 0 | 0.0 | 0.0 | 0.00 | 0.00 | 0.00 | 97 | 1008.9 |
| 20260906062118 | 70 | 0 | 0.0 | 0.0 | 0.00 | 0.00 | 0.00 | 97 | 1008.9 |
| 20260906061615 | 70 | 0 | 0.0 | 0.0 | 0.00 | 0.00 | 0.00 | 97 | 1008.8 |
| 20260906061101 | 70 | 0 | 0.0 | 0.0 | 0.00 | 0.00 | 0.00 | 97 | 1009.0 |
| 20260906060607 | 70 | 0 | 0.0 | 0.0 | 0.00 | 0.00 | 0.00 | 97 | 1009.1 |
| 20260906060107 | 70 | 0 | 0.0 | 0.0 | 0.00 | 0.00 | 0.00 | 97 | 1009.2 |
| 20260906055555 | 70 | 0 | 0.0 | 0.0 | 0.00 | 0.00 | 0.00 | 97 | 1008.9 |
| 20260906055038 | 70 | 0 | 0.0 | 0.0 | 0.00 | 0.00 | 0.00 | 96 | 1009.0 |
| 20260906053926 | 70 | 0 | 0.0 | 0.0 | 0.00 | 0.00 | 0.00 | 97 | 1009.2 |
| 20260906052805 | 71 | 0 | 0.0 | 0.0 | 0.00 | 0.00 | 0.00 | 96 | 1009.3 |
| 20260906052300 | 71 | 0 | 0.0 | 0.0 | 0.00 | 0.00 | 0.00 | 96 | 1009.4 |
| 20260906051752 | 71 | 0 | 0.0 | 0.0 | 0.00 | 0.00 | 0.00 | 96 | 1009.3 |
| 20260906051301 | 71 | 0 | 0.0 | 0.0 | 0.00 | 0.00 | 0.00 | 96 | 1009.4 |
| 20260906050802 | 71 | 0 | 0.0 | 0.0 | 0.00 | 0.00 | 0.00 | 96 | 1009.4 |
| 20260906050257 | 71 | 0 | 0.0 | 0.0 | 0.00 | 0.00 | 0.00 | 96 | 1009.3 |
| 20260906042640 | 71 | 0 | 0.0 | 0.0 | 0.00 | 0.00 | 0.00 | 96 | 1009.4 |
| 20260906042121 | 71 | 0 | 0.0 | 0.0 | 0.00 | 0.00 | 0.00 | 96 | 1009.4 |
| 20260906041620 | 72 | 0 | 0.0 | 0.9 | 0.00 | 0.00 | 0.00 | 96 | 1009.6 |
| 20260906041108 | 72 | 0 | 0.0 | 0.0 | 0.00 | 0.00 | 0.00 | 96 | 1009.6 |
| 20260906040609 | 72 | 0 | 0.0 | 0.0 | 0.00 | 0.00 | 0.00 | 96 | 1009.5 |
| 20260906040100 | 72 | 0 | 0.0 | 0.0 | 0.00 | 0.00 | 0.00 | 96 | 1009.7 |
| 20260906034953 | 72 | 331 | 0.0 | 2.6 | 0.00 | 0.00 | 0.00 | 96 | 1009.8 |
| 20260906033833 | 72 | 340 | 0.0 | 0.0 | 0.00 | 0.00 | 0.00 | 96 | 1009.8 |
| 20260906033333 | 72 | 344 | 0.0 | 0.0 | 0.00 | 0.00 | 0.00 | 96 | 1009.5 |
| 20260906032826 | 72 | 344 | 0.0 | 0.0 | 0.00 | 0.00 | 0.00 | 96 | 1009.4 |
| 20260906032335 | 72 | 344 | 0.0 | 0.0 | 0.00 | 0.00 | 0.00 | 96 | 1009.5 |
| 20260906031842 | 72 | 344 | 0.0 | 0.0 | 0.00 | 0.00 | 0.00 | 96 | 1009.6 |
| 20260906031337 | 72 | 344 | 0.0 | 0.0 | 0.00 | 0.00 | 0.00 | 96 | 1009.6 |
| 20260906030836 | 72 | 344 | 0.0 | 0.0 | 0.00 | 0.00 | 0.00 | 96 | 1009.6 |
| 20260906030343 | 72 | 344 | 0.0 | 0.0 | 0.00 | 0.00 | 0.00 | 96 | 1009.6 |
| 20260906025156 | 72 | 344 | 0.0 | 0.0 | 0.00 | 0.00 | 0.00 | 96 | 1010.1 |
| 20260906024654 | 73 | 309 | 0.0 | 0.0 | 0.00 | 0.00 | 0.00 | 96 | 1009.9 |
| 20260906024203 | 73 | 309 | 0.0 | 0.9 | 0.00 | 0.00 | 0.00 | 96 | 1010.1 |
| 20260906023702 | 73 | 309 | 0.0 | 0.0 | 0.00 | 0.00 | 0.00 | 96 | 1010.0 |
| 20260906023209 | 73 | 309 | 0.0 | 0.0 | 0.00 | 0.00 | 0.00 | 96 | 1010.1 |
| 20260906022708 | 73 | 309 | 0.0 | 3.5 | 0.00 | 0.00 | 0.00 | 96 | 1010.1 |
| 20260906021549 | 73 | 323 | 0.0 | 2.6 | 0.00 | 0.00 | 0.00 | 96 | 1010.0 |
| 20260906021057 | 73 | 355 | 0.0 | 0.0 | 0.00 | 0.00 | 0.00 | 96 | 1010.3 |
| 20260906020603 | 73 | 71 | 0.0 | 0.0 | 0.00 | 0.00 | 0.00 | 96 | 1010.2 |
| 20260906015434 | 73 | 71 | 0.0 | 0.0 | 0.00 | 0.00 | 0.00 | 95 | 1010.3 |
| 20260906014315 | 73 | 355 | 0.0 | 0.0 | 0.00 | 0.00 | 0.00 | 95 | 1009.8 |
| 20260906013757 | 73 | 355 | 0.0 | 0.0 | 0.00 | 0.00 | 0.00 | 95 | 1009.8 |
| 20260906013251 | 73 | 355 | 0.0 | 0.0 | 0.00 | 0.00 | 0.00 | 95 | 1009.7 |
| 20260906012144 | 74 | 23 | 0.0 | 0.0 | 0.00 | 0.00 | 0.00 | 95 | 1009.7 |
| 20260906011643 | 74 | 324 | 0.0 | 0.0 | 0.00 | 0.00 | 0.00 | 95 | 1009.6 |
| 20260906011141 | 74 | 152 | 0.0 | 0.0 | 0.00 | 0.00 | 0.00 | 94 | 1009.6 |
| 20260906010643 | 74 | 152 | 0.0 | 0.0 | 0.00 | 0.00 | 0.00 | 94 | 1009.5 |
| 20260906005509 | 74 | 280 | 0.0 | 0.0 | 0.00 | 0.00 | 0.00 | 94 | 1009.4 |
| 20260906005010 | 74 | 311 | 0.0 | 0.0 | 0.00 | 0.00 | 0.00 | 95 | 1009.2 |
| 20260906004508 | 74 | 72 | 0.0 | 0.0 | 0.00 | 0.00 | 0.00 | 94 | 1009.2 |
| 20260906004004 | 74 | 84 | 0.0 | 0.0 | 0.00 | 0.00 | 0.00 | 94 | 1009.1 |
| 20260906003454 | 74 | 336 | 0.0 | 0.0 | 0.00 | 0.00 | 0.00 | 94 | 1009.0 |
| 20260906002952 | 74 | 336 | 0.0 | 0.0 | 0.00 | 0.00 | 0.00 | 94 | 1008.9 |
| 20260906002439 | 74 | 336 | 0.0 | 0.0 | 0.00 | 0.00 | 0.00 | 93 | 1008.8 |
| 20260906001945 | 75 | 336 | 0.0 | 0.0 | 0.00 | 0.00 | 0.00 | 93 | 1008.9 |
| 20260906001426 | 75 | 336 | 0.0 | 0.0 | 0.00 | 0.00 | 0.00 | 93 | 1008.9 |
| 20260906000934 | 75 | 177 | 0.0 | 0.0 | 0.00 | 0.00 | 0.00 | 92 | 1008.9 |
| 20260906000418 | 75 | 177 | 0.0 | 0.0 | 0.00 | 0.00 | 0.00 | 92 | 1008.9 |
| 20260905235907 | 75 | 177 | 0.0 | 0.0 | 0.00 | 0.00 | 0.00 | 92 | 1009.0 |
| 20260905235350 | 76 | 177 | 0.0 | 0.0 | 0.00 | 0.00 | 0.00 | 91 | 1008.9 |
| 20260905234854 | 76 | 225 | 0.0 | 0.0 | 0.00 | 0.00 | 0.00 | 91 | 1009.0 |
| 20260905233721 | 77 | 241 | 0.0 | 0.0 | 0.00 | 0.00 | 0.00 | 90 | 1008.5 |
| 20260905232611 | 78 | 241 | 0.0 | 0.0 | 0.00 | 0.00 | 0.00 | 89 | 1008.8 |
| 20260905232054 | 78 | 342 | 0.0 | 0.0 | 0.00 | 0.00 | 0.00 | 91 | 1008.8 |
| 20260905231545 | 78 | 301 | 0.0 | 0.0 | 0.00 | 0.00 | 0.00 | 92 | 1008.6 |
| 20260905230416 | 78 | 301 | 0.0 | 0.0 | 0.00 | 0.00 | 0.00 | 89 | 1008.9 |
| 20260905225250 | 79 | 194 | 0.0 | 0.0 | 0.00 | 0.00 | 0.00 | 90 | 1008.7 |
| 20260905223525 | 80 | 213 | 0.0 | 0.0 | 0.00 | 0.00 | 0.00 | 87 | 1008.5 |
| 20260905223021 | 80 | 227 | 0.0 | 0.0 | 0.00 | 0.00 | 0.00 | 86 | 1008.5 |
| 20260905222504 | 80 | 135 | 0.0 | 0.0 | 0.00 | 0.00 | 0.00 | 88 | 1008.4 |
| 20260905222000 | 79 | 135 | 0.0 | 0.0 | 0.00 | 0.00 | 0.00 | 88 | 1008.3 |
| 20260905221502 | 80 | 135 | 0.0 | 0.0 | 0.00 | 0.00 | 0.00 | 86 | 1008.5 |
| 20260905220951 | 81 | 294 | 0.0 | 2.6 | 0.00 | 0.00 | 0.00 | 85 | 1008.6 |
| 20260905220434 | 81 | 252 | 0.0 | 2.6 | 0.00 | 0.00 | 0.00 | 84 | 1008.8 |
| 20260905215311 | 79 | 120 | 0.0 | 0.0 | 0.00 | 0.00 | 0.00 | 88 | 1009.1 |
| 20260905213535 | 79 | 120 | 0.0 | 0.0 | 0.00 | 0.00 | 0.00 | 88 | 1008.4 |
| 20260905213034 | 79 | 120 | 0.0 | 0.0 | 0.00 | 0.00 | 0.00 | 89 | 1008.3 |
| 20260905212516 | 79 | 120 | 0.0 | 0.0 | 0.00 | 0.00 | 0.00 | 88 | 1008.4 |
| 20260905212003 | 79 | 120 | 0.0 | 0.9 | 0.00 | 0.00 | 0.00 | 86 | 1008.3 |
| 20260905211448 | 80 | 120 | 0.0 | 0.9 | 0.00 | 0.00 | 0.00 | 87 | 1008.5 |
| 20260905210938 | 80 | 120 | 0.0 | 0.0 | 0.00 | 0.00 | 0.00 | 87 | 1008.4 |
| 20260905210442 | 81 | 120 | 0.0 | 0.9 | 0.00 | 0.00 | 0.00 | 85 | 1008.5 |
| 20260905205925 | 81 | 120 | 0.0 | 0.0 | 0.00 | 0.00 | 0.00 | 84 | 1008.8 |
| 20260905204756 | 82 | 120 | 0.9 | 4.3 | 0.00 | 0.00 | 0.00 | 83 | 1008.8 |
| 20260905204302 | 83 | 117 | 0.9 | 7.0 | 0.00 | 0.00 | 0.00 | 79 | 1008.7 |
| 20260905203744 | 84 | 159 | 0.9 | 7.0 | 0.00 | 0.00 | 0.00 | 75 | 1008.8 |
| 20260905203234 | 85 | 223 | 0.9 | 7.8 | 0.00 | 0.00 | 0.00 | 75 | 1008.9 |
| 20260905202726 | 85 | 295 | 1.7 | 7.8 | 0.00 | 0.00 | 0.00 | 73 | 1009.2 |
| 20260905202211 | 84 | 250 | 1.7 | 7.8 | 0.00 | 0.00 | 0.00 | 72 | 1009.1 |
| 20260905201703 | 83 | 302 | 1.7 | 7.8 | 0.00 | 0.00 | 0.00 | 76 | 1009.5 |
| 20260905200528 | 83 | 111 | 0.0 | 1.7 | 0.00 | 0.00 | 0.00 | 78 | 1009.1 |
| 20260905200009 | 83 | 269 | 0.0 | 3.5 | 0.00 | 0.00 | 0.00 | 79 | 1009.3 |
| 20260905195509 | 81 | 116 | 0.0 | 3.5 | 0.00 | 0.00 | 0.00 | 81 | 1009.4 |
| 20260905194951 | 80 | 171 | 0.0 | 3.5 | 0.00 | 0.00 | 0.00 | 81 | 1009.7 |
| 20260905194457 | 80 | 148 | 0.0 | 3.5 | 0.00 | 0.00 | 0.00 | 82 | 1009.7 |
| 20260905194006 | 80 | 132 | 0.0 | 1.7 | 0.00 | 0.00 | 0.00 | 80 | 1009.3 |
| 20260905192852 | 81 | 130 | 0.9 | 3.5 | 0.00 | 0.00 | 0.00 | 79 | 1008.8 |
| 20260905192348 | 80 | 131 | 0.9 | 3.5 | 0.00 | 0.00 | 0.00 | 81 | 1009.0 |
| 20260905191837 | 80 | 139 | 0.0 | 3.5 | 0.00 | 0.00 | 0.00 | 81 | 1009.2 |
| 20260905191321 | 80 | 164 | 0.0 | 2.6 | 0.00 | 0.00 | 0.00 | 78 | 1009.4 |
| 20260905190816 | 80 | 117 | 0.0 | 4.3 | 0.00 | 0.00 | 0.00 | 82 | 1009.7 |
| 20260905190303 | 82 | 157 | 0.0 | 4.3 | 0.00 | 0.00 | 0.00 | 74 | 1009.8 |
| 20260905185747 | 82 | 169 | 1.7 | 10.4 | 0.00 | 0.00 | 0.00 | 73 | 1009.5 |
| 20260905185238 | 84 | 351 | 3.5 | 10.4 | 0.00 | 0.00 | 0.00 | 63 | 1009.4 |
| 20260905184731 | 85 | 296 | 3.5 | 10.4 | 0.00 | 0.00 | 0.00 | 65 | 1009.3 |
| 20260905184220 | 87 | 44 | 2.6 | 10.4 | 0.00 | 0.00 | 0.00 | 65 | 1009.2 |
| 20260905183724 | 88 | 347 | 0.9 | 9.6 | 0.00 | 0.00 | 0.00 | 68 | 1009.3 |
| 20260905183209 | 88 | 111 | 0.0 | 0.0 | 0.00 | 0.00 | 0.00 | 80 | 1009.2 |
| 20260905182700 | 89 | 121 | 0.0 | 0.0 | 0.00 | 0.00 | 0.00 | 80 | 1008.6 |
| 20260905182203 | 89 | 121 | 0.0 | 0.0 | 0.00 | 0.00 | 0.00 | 73 | 1008.6 |
| 20260905181700 | 90 | 121 | 0.0 | 1.7 | 0.00 | 0.00 | 0.00 | 75 | 1008.5 |
| 20260905181206 | 90 | 138 | 0.0 | 0.0 | 0.00 | 0.00 | 0.00 | 74 | 1008.5 |
| 20260905180051 | 90 | 147 | 0.0 | 0.0 | 0.00 | 0.00 | 0.00 | 76 | 1008.6 |
| 20260905175535 | 90 | 147 | 0.0 | 0.0 | 0.00 | 0.00 | 0.00 | 78 | 1008.6 |
| 20260905175040 | 89 | 189 | 0.0 | 0.0 | 0.00 | 0.00 | 0.00 | 79 | 1008.9 |
| 20260905174545 | 89 | 189 | 0.0 | 0.0 | 0.00 | 0.00 | 0.00 | 78 | 1008.8 |
| 20260905174051 | 90 | 263 | 0.0 | 0.0 | 0.00 | 0.00 | 0.00 | 74 | 1008.8 |
| 20260905172951 | 89 | 163 | 0.0 | 0.0 | 0.00 | 0.00 | 0.00 | 66 | 1009.3 |
| 20260905172446 | 88 | 163 | 0.0 | 0.9 | 0.00 | 0.00 | 0.00 | 78 | 1009.2 |
| 20260905171951 | 90 | 259 | 0.9 | 0.0 | 0.00 | 0.00 | 0.00 | 70 | 1009.2 |
| 20260905171434 | 90 | 284 | 0.9 | 2.6 | 0.00 | 0.00 | 0.00 | 70 | 1009.2 |
| 20260905170930 | 89 | 288 | 0.9 | 2.6 | 0.00 | 0.00 | 0.00 | 72 | 1009.3 |
| 20260905170417 | 88 | 288 | 0.0 | 2.6 | 0.00 | 0.00 | 0.00 | 73 | 1009.3 |
| 20260905165240 | 88 | 322 | 0.0 | 0.0 | 0.00 | 0.00 | 0.00 | 75 | 1009.5 |
| 20260905164735 | 89 | 304 | 0.0 | 3.5 | 0.00 | 0.00 | 0.00 | 69 | 1009.6 |
| 20260905164229 | 88 | 292 | 0.0 | 3.5 | 0.00 | 0.00 | 0.00 | 72 | 1009.8 |
| 20260905163735 | 89 | 177 | 0.9 | 3.5 | 0.00 | 0.00 | 0.00 | 72 | 1009.8 |
| 20260905163226 | 89 | 274 | 0.9 | 3.5 | 0.00 | 0.00 | 0.00 | 73 | 1009.9 |
| 20260905161444 | 88 | 315 | 1.7 | 5.2 | 0.00 | 0.00 | 0.00 | 67 | 1010.1 |
| 20260905160940 | 88 | 273 | 0.9 | 5.2 | 0.00 | 0.00 | 0.00 | 73 | 1010.2 |
| 20260905160421 | 87 | 292 | 0.9 | 3.5 | 0.00 | 0.00 | 0.00 | 79 | 1010.3 |
| 20260905155920 | 87 | 66 | 0.0 | 3.5 | 0.00 | 0.00 | 0.00 | 75 | 1010.2 |
| 20260905155429 | 85 | 53 | 0.0 | 0.0 | 0.00 | 0.00 | 0.00 | 85 | 1010.3 |
| 20260905154933 | 85 | 78 | 0.0 | 0.0 | 0.00 | 0.00 | 0.00 | 86 | 1010.3 |
| 20260905154431 | 86 | 24 | 0.0 | 2.6 | 0.00 | 0.00 | 0.00 | 83 | 1010.4 |
| 20260905153937 | 84 | 261 | 0.0 | 2.6 | 0.00 | 0.00 | 0.00 | 87 | 1010.5 |
| 20260905153433 | 84 | 59 | 0.0 | 2.6 | 0.00 | 0.00 | 0.00 | 82 | 1010.6 |
| 20260905152915 | 83 | 334 | 0.0 | 0.9 | 0.00 | 0.00 | 0.00 | 89 | 1010.6 |
| 20260905151808 | 85 | 335 | 0.0 | 2.6 | 0.00 | 0.00 | 0.00 | 83 | 1010.6 |
| 20260905151252 | 84 | 285 | 0.0 | 0.0 | 0.00 | 0.00 | 0.00 | 85 | 1010.6 |
| 20260905150738 | 81 | 125 | 0.0 | 0.0 | 0.00 | 0.00 | 0.00 | 94 | 1010.7 |
| 20260905150220 | 81 | 125 | 0.0 | 0.0 | 0.00 | 0.00 | 0.00 | 94 | 1010.7 |
| 20260905145712 | 80 | 125 | 0.0 | 0.0 | 0.00 | 0.00 | 0.00 | 93 | 1010.8 |
| 20260905145210 | 80 | 125 | 0.0 | 0.0 | 0.00 | 0.00 | 0.00 | 94 | 1010.7 |
| 20260905144659 | 79 | 125 | 0.0 | 0.0 | 0.00 | 0.00 | 0.00 | 95 | 1010.9 |
| 20260905144143 | 79 | 74 | 0.0 | 0.0 | 0.00 | 0.00 | 0.00 | 98 | 1011.0 |
| 20260905143651 | 77 | 76 | 0.0 | 0.0 | 0.00 | 0.00 | 0.00 | 98 | 1011.2 |
| 20260905143158 | 76 | 321 | 0.0 | 0.0 | 0.00 | 0.00 | 0.00 | 99 | 1011.2 |
| 20260905142701 | 75 | 321 | 0.0 | 0.0 | 0.00 | 0.00 | 0.00 | 99 | 1011.3 |
| 20260905142209 | 74 | 321 | 0.0 | 0.0 | 0.00 | 0.00 | 0.00 | 99 | 1011.3 |
| 20260905141718 | 74 | 321 | 0.0 | 0.0 | 0.00 | 0.00 | 0.00 | 99 | 1011.4 |
| 20260905141225 | 74 | 321 | 0.0 | 0.0 | 0.00 | 0.00 | 0.00 | 99 | 1011.4 |
| 20260905140728 | 73 | 321 | 0.0 | 0.0 | 0.00 | 0.00 | 0.00 | 99 | 1011.6 |
| 20260905140235 | 73 | 321 | 0.0 | 0.0 | 0.00 | 0.00 | 0.00 | 99 | 1011.7 |
| 20260905135730 | 73 | 321 | 0.0 | 0.0 | 0.00 | 0.00 | 0.00 | 99 | 1011.7 |
| 20260905135220 | 72 | 321 | 0.0 | 0.0 | 0.00 | 0.00 | 0.00 | 99 | 1011.8 |
| 20260905134712 | 72 | 321 | 0.0 | 0.0 | 0.00 | 0.00 | 0.00 | 99 | 1011.8 |
| 20260905134212 | 72 | 321 | 0.0 | 0.0 | 0.00 | 0.00 | 0.00 | 99 | 1011.9 |
| 20260905133712 | 72 | 321 | 0.0 | 0.0 | 0.00 | 0.00 | 0.00 | 99 | 1012.0 |
| 20260905133154 | 71 | 321 | 0.0 | 0.0 | 0.00 | 0.00 | 0.00 | 99 | 1012.1 |
| 20260905132638 | 71 | 321 | 0.0 | 0.0 | 0.00 | 0.00 | 0.00 | 98 | 1012.1 |
| 20260905132141 | 71 | 321 | 0.0 | 0.0 | 0.00 | 0.00 | 0.00 | 98 | 1012.1 |
| 20260905131000 | 70 | 321 | 0.0 | 0.0 | 0.00 | 0.00 | 0.00 | 98 | 1012.2 |
| 20260905130451 | 70 | 321 | 0.0 | 0.0 | 0.00 | 0.00 | 0.00 | 98 | 1012.1 |
| 20260905125943 | 70 | 321 | 0.0 | 0.0 | 0.00 | 0.00 | 0.00 | 98 | 1012.0 |
| 20260905124824 | 70 | 321 | 0.0 | 0.0 | 0.00 | 0.00 | 0.00 | 98 | 1012.0 |
| 20260905124322 | 70 | 321 | 0.0 | 0.0 | 0.00 | 0.00 | 0.00 | 98 | 1012.0 |
| 20260905123203 | 70 | 321 | 0.0 | 0.0 | 0.00 | 0.00 | 0.00 | 98 | 1011.9 |
| 20260905122019 | 70 | 321 | 0.0 | 0.0 | 0.00 | 0.00 | 0.00 | 98 | 1011.8 |
| 20260905121524 | 70 | 321 | 0.0 | 0.0 | 0.00 | 0.00 | 0.00 | 98 | 1011.8 |
| 20260905121022 | 70 | 321 | 0.0 | 0.0 | 0.00 | 0.00 | 0.00 | 98 | 1011.8 |
| 20260905120503 | 70 | 321 | 0.0 | 0.0 | 0.00 | 0.00 | 0.00 | 98 | 1011.8 |
| 20260905120013 | 70 | 321 | 0.0 | 0.0 | 0.00 | 0.00 | 0.00 | 98 | 1011.8 |
| 20260905115456 | 70 | 321 | 0.0 | 0.0 | 0.00 | 0.00 | 0.00 | 98 | 1011.7 |
| 20260905115003 | 69 | 321 | 0.0 | 0.0 | 0.00 | 0.00 | 0.00 | 98 | 1011.7 |
| 20260905114511 | 69 | 321 | 0.0 | 0.0 | 0.00 | 0.00 | 0.00 | 98 | 1011.6 |
| 20260905114019 | 69 | 321 | 0.0 | 0.0 | 0.00 | 0.00 | 0.00 | 98 | 1011.5 |
| 20260905113521 | 69 | 321 | 0.0 | 1.7 | 0.00 | 0.00 | 0.00 | 98 | 1011.5 |
| 20260905112406 | 69 | 345 | 0.0 | 0.9 | 0.00 | 0.00 | 0.00 | 98 | 1011.2 |
| 20260905111250 | 69 | 350 | 0.9 | 1.7 | 0.00 | 0.00 | 0.00 | 98 | 1011.2 |
| 20260905110746 | 69 | 327 | 0.0 | 1.7 | 0.00 | 0.00 | 0.00 | 98 | 1011.1 |
| 20260905110243 | 69 | 0 | 0.0 | 0.0 | 0.00 | 0.00 | 0.00 | 98 | 1011.1 |
| 20260905105729 | 69 | 0 | 0.0 | 0.0 | 0.00 | 0.00 | 0.00 | 98 | 1010.7 |
| 20260905105233 | 70 | 0 | 0.0 | 0.0 | 0.00 | 0.00 | 0.00 | 98 | 1010.7 |
| 20260905104714 | 70 | 0 | 0.0 | 1.7 | 0.00 | 0.00 | 0.00 | 98 | 1010.5 |
| 20260905104216 | 70 | 321 | 0.0 | 1.7 | 0.00 | 0.00 | 0.00 | 97 | 1010.5 |
| 20260905103712 | 70 | 321 | 0.0 | 1.7 | 0.00 | 0.00 | 0.00 | 97 | 1010.5 |
| 20260905103156 | 70 | 321 | 0.0 | 0.0 | 0.00 | 0.00 | 0.00 | 97 | 1010.6 |
| 20260905102659 | 70 | 321 | 0.0 | 0.0 | 0.00 | 0.00 | 0.00 | 97 | 1010.6 |
| 20260905100924 | 70 | 321 | 0.0 | 0.0 | 0.00 | 0.00 | 0.00 | 98 | 1010.5 |
| 20260905100418 | 70 | 321 | 0.0 | 1.7 | 0.00 | 0.00 | 0.00 | 98 | 1010.6 |
| 20260905095923 | 70 | 321 | 0.0 | 0.0 | 0.00 | 0.00 | 0.00 | 98 | 1010.7 |
| 20260905095432 | 70 | 321 | 0.0 | 0.0 | 0.00 | 0.00 | 0.00 | 97 | 1010.6 |
| 20260905094941 | 70 | 321 | 0.0 | 0.0 | 0.00 | 0.00 | 0.00 | 97 | 1010.7 |
| 20260905094443 | 70 | 321 | 0.0 | 0.0 | 0.00 | 0.00 | 0.00 | 97 | 1010.6 |
| 20260905093943 | 70 | 321 | 0.0 | 0.0 | 0.00 | 0.00 | 0.00 | 97 | 1010.6 |
| 20260905093444 | 70 | 321 | 0.0 | 0.0 | 0.00 | 0.00 | 0.00 | 97 | 1010.6 |